Find Starlink 34257

NORAD ID: 65225 Int'l Des: 2025-176 Owner: SPXS Country: US Constellation: starlink operational
LEOCIRCULAR

实时位置

正在加载3D地球...

关于 Starlink 34257

正在加载描述...

即将过境

Passes for default location (London). Set your location on the main map for personalized predictions.

高度历史

Loading altitude history...

两行轨道根数

1 65225U 25176AD 26103.96404570 .00009193 00000-0 32193-3 0 9991
2 65225 53.1591 348.6951 0001148 81.6741 278.4390 15.30220678 38461
Epoch: Apr 13, 2026 • Age: 22 hours

当前状态

高度 478.3 km
速度 7.63 km/s
星下点 -11.34°S, 177.51°E
发射日期 Aug 14, 2025
运行时间 0.6 years
类型 internet

技术详情

分类 Payload
质量 575.00 kg
干质量 530.00 kg
总质量 575.00 kg
长度 0.30 m
直径 4.10 m
跨度 29.00 m
形状 Box + pan
制造商 SPXS
平台类型 Starlink V2MO
阶段状态 In Orbit
所有者/国家 SPXS/US

Most Searched